Hourly Data Report for October 24, 2014

All times are specified in Local Standard Time (LST). Add 1 hour to adjust for Daylight Saving Time where and when it is observed.

BAKER LAKE A
NUNAVUT

64°17'56.000" N
96°04'40.000" W
18.60 m
2300503
71926
YBK

Download Data

Hourly Data (October 2014)
Hourly Data Report for October 24, 2014
Temp Definition
°C
Dew Point Temp Definition
°C
Rel Hum Definition
%
Wind Dir Definition
10's deg

Wind Spd Definition
km/h
Visibility Definition
km
Stn Press Definition
kPa
Hmdx Definition


Wind Chill Definition


Weather Definition


TIME
00:00 Legend Double Dagger -4.2 -6.2 86 11 47 24.1 101.85   -14 Blowing Snow
01:00 Legend Double Dagger -3.9 -5.6 88 11 39 24.1 101.77   -13 Blowing Snow
02:00 Legend Double Dagger -3.7 -5.7 86 11 43 24.1 101.72   -13 Blowing Snow
03:00 Legend Double Dagger -4.2 -5.6 90 10 42 24.1 101.65   -13 Cloudy
04:00 Legend Double Dagger -4.2 -5.6 90 10 41 24.1 101.61   -13 Blowing Snow
05:00 Legend Double Dagger -4.0 -6.0 86 11 46 24.1 101.58   -13 Blowing Snow
06:00 Legend Double Dagger -4.2 -6.5 84 11 46 24.1 101.53   -14 Blowing Snow
07:00 Legend Double Dagger -5.5 -6.9 90 8 37 24.1 101.49   -14 Blowing Snow
08:00 Legend Double Dagger -4.9 -6.2 91 9 36 32.2 101.43   -14 Blowing Snow
09:00 Legend Double Dagger -3.7 -6.2 83 11 47 32.2 101.37   -13 Blowing Snow
10:00 Legend Double Dagger -3.2 -5.5 84 11 40 32.2 101.29   -12 Blowing Snow
11:00 Legend Double Dagger -3.1 -5.3 85 10 40 32.2 101.23   -12 Blowing Snow
12:00 Legend Double Dagger -2.5 -5.7 79 12 48 32.2 101.16   -11 Blowing Snow
13:00 Legend Double Dagger -2.4 -5.6 79 12 44 32.2 101.11   -11 Blowing Snow
14:00 Legend Double Dagger -2.3 -5.6 78 11 46 32.2 101.03   -11 Blowing Snow
15:00 Legend Double Dagger -2.1 -5.3 79 11 48 32.2 100.96   -11 Blowing Snow
16:00 Legend Double Dagger -1.9 -4.6 82 11 40 32.2 100.95   -10 Blowing Snow
17:00 Legend Double Dagger -3.4 -5.3 87 8 37 24.1 100.90   -12 Blowing Snow
18:00 Legend Double Dagger -3.2 -4.9 88 8 33 24.1 100.86   -11 Blowing Snow
19:00 Legend Double Dagger -2.3 -4.0 88 10 40 24.1 100.85   -10 Blowing Snow
20:00 Legend Double Dagger -2.9 -4.8 87 8 37 24.1 100.83   -11 Blowing Snow
21:00 Legend Double Dagger -3.2 -5.1 87 9 39 24.1 100.79   -12 Blowing Snow
22:00 Legend Double Dagger -3.3 -5.2 87 9 40 24.1 100.75   -12 Blowing Snow
23:00 Legend Double Dagger -3.8 -5.8 86 9 42 24.1 100.75   -13 Blowing Snow

Notes on Data Quality.

Legend

  • E = Estimated
  • M = Missing
  • NA = Not Available
  • ‡ = Partner data that is not subject to review by the National Climate Archives
Date modified: